[[{"header":{"parameterUnit":"m.s-1","parameterCategory":1,"la1":30.2991,"la2":30.254,"lo1":-89.0895,"lo2":-89.0444,"dy":0.0017,"dx":0.0017,"nx":28,"ny":28,"refTime":"2024-03-30T21:00:00:Z","depth":0,"parameterNumber":2,"parameterNumberName":"U-component_of_WINDS"},"data":[0,0,0,0,0,0,0,0,0,0,0,0,0,0,0,0,0,0,0,0,0,0,0,0,0,0,0,0,0,0,0,0,0,0,0,0,0,0,0,0,0,0,0,0,0,0,0,0,0,0,0,0,0,0,0,0,0,0,-2.0964,-2.0965,0,-2.1016,-2.1017,-2.1017,-2.0996,-2.0994,-2.0993,-2.0992,-2.1045,-2.1047,-2.105,0,0,0,0,0,0,0,0,0,0,0,0,0,-2.0846,-2.0848,-2.0964,-2.0965,-2.0966,-2.1016,-2.1017,-2.1017,-2.0996,-2.0994,-2.0993,-2.0992,-2.1044,-2.1047,-2.105,0,0,0,0,0,0,0,0,0,0,0,0,0,-2.0897,-2.0849,-2.0964,-2.0961,-2.0961,-2.1016,-2.1017,-2.1018,-2.0996,-2.0994,-2.0993,-2.0991,-2.1043,-2.1047,-2.1051,-2.1111,0,0,-2.1062,-2.1064,0,0,0,0,0,0,0,0,-2.0894,-2.0902,-2.0961,-2.0961,-2.0962,-2.0998,-2.0994,-2.1049,-2.0997,-2.0983,-2.0992,-2.099,-2.1031,-2.1035,-2.1049,-2.1114,-2.1116,-2.1063,-2.1065,-2.1067,-2.1068,0,0,0,0,0,0,0,-2.0891,-2.0899,-2.0985,-2.0962,-2.0962,-2.0957,-2.0962,-2.1004,-2.1017,-2.0984,-2.0983,-2.0989,-2.103,-2.1045,-2.105,-2.1117,-2.1063,-2.1066,-2.1068,-2.107,-2.1232,-2.1234,0,0,0,0,0,0,-2.0887,-2.0896,-2.0983,-2.0986,-2.0923,-2.096,-2.0966,-2.0988,-2.1016,-2.1019,-2.0991,-2.0988,-2.104,-2.1046,-2.1052,-2.1123,-2.1067,-2.107,-2.1072,-2.123,-2.1233,-2.1235,0,0,0,0,0,0,-2.0885,-2.0895,-2.0981,-2.0941,-2.0951,-2.0964,-2.0989,-2.099,-2.1005,-2.1021,-2.1023,-2.1004,-2.1039,-2.1047,-2.1096,-2.1125,-2.1072,-2.1075,-2.1228,-2.1231,-2.1234,-2.1267,0,0,0,0,0,0,-2.0882,-2.0894,-2.0918,-2.0942,-2.0954,-2.1025,-2.0991,-2.0992,-2.1011,-2.1008,-2.1034,-2.1036,-2.1038,-2.1091,-2.11,-2.1129,-2.1078,-2.1225,-2.1229,-2.1233,-2.1264,-2.1271,-2.1278,0,0,0,0,0,-2.0877,-2.0926,-2.0919,-2.093,-2.0983,-2.1026,-2.1033,-2.1034,-2.1014,-2.1037,-2.1047,-2.1035,-2.1121,-2.1096,-2.1106,-2.1137,-2.1223,-2.1228,-2.1232,-2.1261,-2.127,-2.1277,0,0,0,0,0,0,-2.0905,-2.0929,-2.0922,-2.0979,-2.1001,-2.1023,-2.1052,-2.1044,-2.1072,-2.1068,-2.1068,-2.1074,-2.1125,-2.1136,-2.1108,-2.1197,-2.1169,-2.1176,-2.1187,-2.1196,-2.1202,-2.1198,-2.1082,0,0,0,0,0,-2.0918,-2.0951,-2.097,-2.1019,-2.103,-2.104,-2.1058,-2.1057,-2.1079,-2.1088,-2.1102,-2.1124,-2.1156,-2.1177,-2.1207,-2.1266,-2.127,-2.1292,-2.1299,-2.1305,-2.131,-2.134,-2.135,-2.125,-2.125,-2.125,0,0,-2.0945,-2.0962,-2.0983,-2.1025,-2.1042,-2.1075,-2.1047,-2.1085,-2.1109,-2.1094,-2.1141,-2.1153,-2.1177,-2.1231,-2.1256,-2.1242,-2.1339,-2.1311,-2.1315,-2.1317,-2.1346,-2.1355,-2.1364,-2.1253,-2.1252,-2.1252,0,0,-2.101,-2.1027,-2.1069,-2.1086,-2.1111,-2.1117,-2.1127,-2.115,-2.1157,-2.1204,-2.1193,-2.1223,-2.1278,-2.1295,-2.1311,-2.1383,-2.1372,-2.1393,-2.1428,-2.1458,-2.1466,-2.1472,-2.1496,-2.1505,-2.1398,-2.1399,-2.1399,0,-2.104,-2.109,-2.1091,-2.1129,-2.1147,-2.1135,-2.1177,-2.1194,-2.1228,-2.124,-2.1225,-2.1293,-2.1309,-2.1366,-2.1383,-2.1397,-2.1408,-2.1389,-2.1464,-2.1471,-2.1478,-2.15,-2.151,-2.1401,-2.14,-2.14,-2.14,0,-2.1125,-2.116,-2.1191,-2.1223,-2.1245,-2.1285,-2.1291,-2.1313,-2.131,-2.1318,-2.1366,-2.1384,-2.1417,-2.1431,-2.1429,-2.1488,-2.1478,-2.1464,-2.1436,-2.149,-2.1511,-2.1519,-2.1404,-2.1403,-2.1402,-2.1402,0,0,-2.1208,-2.124,-2.1251,-2.1265,-2.1293,-2.132,-2.1359,-2.1391,-2.1409,-2.1433,-2.1464,-2.1511,-2.1497,-2.1516,-2.1515,-2.1542,-2.1595,-2.1524,-2.1524,-2.1535,-2.1659,-2.1668,-2.1678,-2.1589,-2.159,-2.1592,-2.1656,0,-2.1274,-2.1341,-2.1343,-2.1405,-2.1437,-2.1426,-2.1459,-2.1479,-2.1487,-2.1515,-2.1524,-2.1556,-2.1537,-2.1547,-2.1573,-2.1583,-2.1619,-2.1579,-2.1617,-2.1618,-2.1609,-2.1689,-2.1699,-2.1759,-2.1665,-2.1666,-2.1667,0,-2.1359,-2.1385,-2.145,-2.1471,-2.1485,-2.1515,-2.1544,-2.1571,-2.1593,-2.1597,-2.1617,-2.1613,-2.1652,-2.1624,-2.1677,-2.1649,-2.1665,-2.1672,-2.1674,-2.1676,-2.1644,-2.1691,-2.1778,-2.1786,-2.168,-2.1679,-2.1678,0,-2.1411,-2.1463,-2.1507,-2.152,-2.1547,-2.1568,-2.158,-2.16,-2.1619,-2.1645,-2.1656,-2.1686,-2.1702,-2.1725,-2.1729,-2.1709,-2.1781,-2.1754,-2.1784,-2.1784,-2.1798,-2.1797,-2.1887,-2.1813,-2.1812,-2.1812,-2.1812,0,-2.1483,-2.1522,-2.1531,-2.1558,-2.1602,-2.1603,-2.1647,-2.1657,-2.1675,-2.1704,-2.1697,-2.1724,-2.1728,-2.1756,-2.176,-2.1802,-2.181,-2.1813,-2.1813,-2.1812,-2.1812,-2.1821,-2.1816,-2.1815,-2.1814,-2.1814,-2.1813,0,-2.1547,-2.1554,-2.1602,-2.1623,-2.163,-2.1661,-2.1679,-2.1704,-2.1712,-2.1748,-2.1757,-2.1768,-2.1801,-2.1807,-2.1846,-2.1848,-2.1897,-2.1895,-2.189,-2.1889,-2.1918,-2.1914,-2.2015,-2.2027,-2.1947,-2.1948,-2.1948,0,-2.1591,-2.1621,-2.1646,-2.1664,-2.1677,-2.1708,-2.1727,-2.173,-2.1749,-2.1777,-2.1799,-2.1831,-2.1856,-2.1908,-2.192,-2.1949,-2.1945,-2.1979,-2.195,-2.1948,-2.1943,-2.1941,-2.1943,-2.1984,-2.1985,-2.1985,-2.1986,0,-2.1669,-2.1671,-2.1698,-2.1727,-2.1749,-2.1772,-2.1794,-2.181,-2.1815,-2.1838,-2.1871,-2.1891,-2.193,-2.1961,-2.199,-2.2002,-2.1994,-2.1995,-2.2003,-2.2002,-2.1997,-2.1998,-2.1902,-2.1992,-2.1992,-2.1991,-2.1991,-2.1991,-2.1723,-2.1748,-2.1769,-2.1799,-2.1816,-2.1836,-2.1861,-2.1871,-2.1899,-2.193,-2.1931,-2.1966,-2.1987,-2.2025,-2.2039,-2.2067,-2.2056,-2.2069,-2.2071,-2.2074,-2.2075,-2.1995,-2.2073,-2.2072,-2.2072,-2.2072,-2.2072,0,-2.1798,-2.181,-2.1839,-2.1869,-2.1892,-2.1884,-2.1907,-2.1928,-2.1959,-2.1979,-2.2004,-2.2041,-2.2071,-2.2085,-2.2115,-2.2134,-2.2131,-2.2141,-2.2139,-2.2141,-2.2084,-2.2073,-2.2143,-2.2143,-2.2143,-2.2143,-2.2143,-2.2143,-2.1839,-2.1881,-2.1886,-2.1936,-2.1948,-2.1983,-2.1996,-2.2015,-2.203,-2.2072,-2.2097,-2.2106,-2.2123,-2.2154,-2.2181,-2.2184,-2.2194,-2.2206,-2.2207,-2.2153,-2.2146,-2.2139,-2.2128,-2.2208,-2.2208,-2.2262,-2.2262,-2.2262]},{"header":{"parameterUnit":"m.s-1","parameterCategory":1,"la1":30.2991,"la2":30.254,"lo1":-89.0895,"lo2":-89.0444,"dy":0.0017,"dx":0.0017,"nx":28,"ny":28,"refTime":"2024-03-30T21:00:00:Z","depth":0,"parameterNumber":3,"parameterNumberName":"V-component_of_WINDS"},"data":[0,0,0,0,0,0,0,0,0,0,0,0,0,0,0,0,0,0,0,0,0,0,0,0,0,0,0,0,0,0,0,0,0,0,0,0,0,0,0,0,0,0,0,0,0,0,0,0,0,0,0,0,0,0,0,0,0,0,2.4597,2.4597,0,2.4589,2.4589,2.4589,2.4597,2.4598,2.4598,2.4598,2.4589,2.4588,2.4588,0,0,0,0,0,0,0,0,0,0,0,0,0,2.4621,2.462,2.4597,2.4597,2.4597,2.4589,2.4589,2.4589,2.4597,2.4598,2.4598,2.4598,2.4589,2.4588,2.4587,0,0,0,0,0,0,0,0,0,0,0,0,0,2.4611,2.462,2.4597,2.46,2.46,2.4589,2.4589,2.4589,2.4597,2.4598,2.4598,2.4599,2.4589,2.4588,2.4587,2.4572,0,0,2.4585,2.4584,0,0,0,0,0,0,0,0,2.4612,2.4611,2.46,2.46,2.46,2.4595,2.4594,2.4583,2.4597,2.4598,2.4598,2.4599,2.459,2.4589,2.4587,2.4572,2.4571,2.4585,2.4584,2.4584,2.4584,0,0,0,0,0,0,0,2.4613,2.4611,2.4594,2.46,2.46,2.4602,2.4602,2.4592,2.4591,2.4598,2.4599,2.4598,2.459,2.4587,2.4586,2.4571,2.4585,2.4584,2.4583,2.4583,2.4547,2.4547,0,0,0,0,0,0,2.4613,2.4611,2.4594,2.4594,2.4607,2.4602,2.4601,2.4596,2.4592,2.4591,2.4597,2.4598,2.4589,2.4587,2.4586,2.457,2.4584,2.4583,2.4583,2.4547,2.4547,2.4546,0,0,0,0,0,0,2.4613,2.4611,2.4594,2.4603,2.4601,2.4601,2.4595,2.4595,2.4593,2.4591,2.4591,2.4594,2.4589,2.4587,2.4576,2.457,2.4583,2.4582,2.4548,2.4547,2.4547,2.4536,0,0,0,0,0,0,2.4614,2.4611,2.4605,2.4602,2.46,2.4584,2.4595,2.4595,2.4591,2.4592,2.4588,2.4588,2.4589,2.4578,2.4576,2.4569,2.4581,2.4549,2.4548,2.4547,2.4537,2.4535,2.4533,0,0,0,0,0,2.4615,2.4601,2.4604,2.4602,2.4592,2.4584,2.4582,2.4584,2.4591,2.4585,2.4584,2.4588,2.4571,2.4576,2.4574,2.4567,2.4549,2.4548,2.4547,2.4538,2.4535,2.4533,0,0,0,0,0,0,2.4601,2.4601,2.4604,2.4589,2.4587,2.4585,2.4577,2.4582,2.4576,2.4577,2.458,2.4579,2.4568,2.4567,2.4573,2.4554,2.4561,2.456,2.4555,2.4553,2.4551,2.4551,2.4581,0,0,0,0,0,2.4597,2.459,2.459,2.4577,2.4575,2.4577,2.4573,2.4575,2.4572,2.4571,2.457,2.4567,2.4561,2.4557,2.4551,2.4537,2.4538,2.4532,2.453,2.4528,2.4527,2.4522,2.452,2.4543,2.4543,2.4543,0,0,2.4586,2.4585,2.458,2.4574,2.4572,2.4566,2.4575,2.4567,2.4563,2.457,2.456,2.4559,2.4556,2.4545,2.4539,2.4543,2.4521,2.4527,2.4526,2.4525,2.4521,2.4518,2.4517,2.4542,2.4543,2.4543,0,0,2.4565,2.4563,2.4553,2.4552,2.455,2.4552,2.455,2.4548,2.4549,2.4539,2.4545,2.454,2.4529,2.4528,2.4526,2.4509,2.4513,2.4507,2.4497,2.4492,2.4491,2.4489,2.4484,2.4482,2.4505,2.4505,2.4505,0,2.4552,2.4542,2.4547,2.454,2.4538,2.4546,2.4537,2.4535,2.4531,2.453,2.4534,2.4523,2.4522,2.4511,2.4507,2.4505,2.4503,2.4506,2.4491,2.4489,2.4488,2.4483,2.4481,2.4505,2.4505,2.4505,2.4505,0,2.4528,2.4522,2.4514,2.4512,2.4509,2.45,2.4505,2.4502,2.4506,2.4507,2.4499,2.4498,2.4494,2.4492,2.4494,2.4483,2.4485,2.449,2.4497,2.4485,2.448,2.4479,2.4504,2.4504,2.4504,2.4504,0,0,2.4494,2.4498,2.4495,2.4495,2.4496,2.4491,2.4484,2.4482,2.4479,2.4478,2.4473,2.4466,2.4472,2.4469,2.4472,2.4468,2.4457,2.4474,2.4474,2.4472,2.4446,2.4442,2.444,2.4461,2.446,2.446,2.4447,0,2.4473,2.4462,2.4468,2.4456,2.4451,2.4461,2.4456,2.4456,2.4459,2.4456,2.4458,2.4454,2.4461,2.446,2.4457,2.4459,2.4452,2.446,2.4456,2.4456,2.4456,2.4437,2.4432,2.442,2.4445,2.4444,2.4444,0,2.4446,2.4446,2.4434,2.4438,2.4437,2.4431,2.4431,2.4428,2.443,2.4432,2.4432,2.4437,2.4432,2.4441,2.4435,2.444,2.444,2.4441,2.4441,2.444,2.4449,2.4436,2.4415,2.4413,2.4441,2.4442,2.4442,0,2.4424,2.442,2.4413,2.4413,2.4418,2.4415,2.4416,2.4419,2.4418,2.4418,2.4418,2.4417,2.4416,2.4416,2.4421,2.4427,2.4416,2.4424,2.4418,2.4418,2.4414,2.4414,2.4393,2.4414,2.4414,2.4414,2.4414,0,2.44,2.4392,2.4404,2.4399,2.4392,2.44,2.4393,2.4396,2.4399,2.4396,2.4405,2.4402,2.441,2.4408,2.4413,2.4409,2.4408,2.441,2.4412,2.4409,2.4409,2.4408,2.4409,2.4413,2.4413,2.4414,2.4414,0,2.4373,2.438,2.4373,2.438,2.4381,2.4376,2.4382,2.4379,2.4384,2.438,2.438,2.4387,2.4386,2.4393,2.4392,2.4396,2.4389,2.4392,2.4389,2.439,2.4384,2.4384,2.4361,2.4359,2.4381,2.4381,2.4381,0,2.4356,2.4351,2.4358,2.4358,2.436,2.4358,2.4358,2.4367,2.4367,2.4371,2.4368,2.4368,2.4369,2.4367,2.4373,2.4373,2.4376,2.4368,2.4376,2.4375,2.4377,2.4377,2.4378,2.4366,2.4366,2.4366,2.4365,0,2.4327,2.4332,2.4332,2.4334,2.4334,2.4336,2.4338,2.4338,2.4348,2.4347,2.4348,2.4348,2.435,2.4351,2.4353,2.4356,2.4363,2.4363,2.4362,2.4359,2.4358,2.436,2.4384,2.4363,2.4363,2.4364,2.4364,2.4364,2.4305,2.4302,2.4308,2.4309,2.4312,2.4315,2.4313,2.4319,2.432,2.4322,2.4328,2.4328,2.4333,2.4338,2.434,2.4341,2.4345,2.4342,2.4342,2.4341,2.4341,2.4359,2.4341,2.4341,2.4341,2.4341,2.4341,0,2.4277,2.4283,2.4283,2.4288,2.4289,2.4297,2.4301,2.4302,2.4301,2.4306,2.4308,2.4309,2.4311,2.4318,2.4321,2.432,2.4324,2.4321,2.4321,2.4322,2.4336,2.4337,2.4318,2.4318,2.4318,2.4318,2.4318,2.4318,2.4263,2.4259,2.4265,2.4265,2.427,2.427,2.4272,2.4276,2.428,2.4282,2.4284,2.4289,2.4296,2.43,2.4302,2.4305,2.4306,2.4302,2.4305,2.4318,2.432,2.4322,2.4323,2.4302,2.4302,2.429,2.429,2.429]}]]